Location: Caltech
(34.1382°N, 118.1253°W)
Time: 09:01:56
(UTC-07:00)

Aureole 2 Rocket - Visible Passes

Search period start: 28 May 2015 00:00
Search period end: 07 June 2015 00:00
Orbit: 340 x 685 km, 73.9° (Epoch: 28 May)

Date Brightness Start Highest point End Pass type
(mag) Time Alt. Az. Time Alt. Az. Time Alt. Az.
28 May 5.5 00:53:36 19° N 00:53:36 19° N 00:55:01 10° N visible
29 May 5.4 00:37:25 20° N 00:37:25 20° N 00:38:54 10° N visible
30 May 5.4 00:21:10 21° N 00:21:10 21° N 00:22:45 10° NNE visible
31 May 5.3 00:04:54 22° NNE 00:04:54 22° NNE 00:06:35 10° NNE visible
31 May 5.1 23:48:32 24° NNE 23:48:32 24° NNE 23:50:23 10° NNE visible
01 Jun 4.9 23:32:07 26° NNE 23:32:07 26° NNE 23:34:10 10° NNE visible
02 Jun 4.7 23:15:38 28° NNE 23:15:38 28° NNE 23:17:55 10° NNE visible
03 Jun 4.4 22:59:04 32° NE 22:59:04 32° NE 23:01:39 10° NNE visible
04 Jun 5.9 00:33:58 11° WNW 00:34:27 11° NW 00:35:24 10° NW visible
04 Jun 4.1 22:42:24 36° NE 22:42:24 36° NE 22:45:22 10° NNE visible
05 Jun 5.8 00:17:17 12° WNW 00:18:04 12° WNW 00:19:45 10° NW visible
05 Jun 3.8 22:25:38 40° ENE 22:25:38 40° ENE 22:29:02 10° NNE visible
06 Jun 5.7 00:00:31 13° WNW 00:01:41 13° WNW 00:03:52 10° NNW visible
06 Jun 3.5 22:08:44 42° E 22:08:44 42° E 22:12:41 10° NNE visible
06 Jun 5.7 23:43:36 13° W 23:45:17 15° WNW 23:47:52 10° NNW visible
